Location: Freistadt
(48.5112°N, 14.5013°E)
Time: 16:02:06
(UTC+02:00)

CUBEBUG 2 - Pass Details

Date: 11 April 2023
Orbit: 577 x 685 km, 97.8° (Epoch: 02 June)

Event Time Altitude Azimuth Distance (km) Brightness Sun altitude
Rises 04:00:12 0° 10° (N) 3,040 ? -21.3°
Reaches altitude 10° 04:02:30 10° 7° (N) 2,109 ? -21.0°
Maximum altitude 04:07:03 62° 288° (WNW) 742 ? -20.4°
Enters shadow 04:07:57 50° 238° (WSW) 838 ? -20.3°
